Regional Weather Roundup
Issued by NWS

Home | Current Version | Previous Version | Graphics & Text | Print | Product List | Glossary Off
Versions: 1 2 3 4 5 6 7 8 9 10 11 12 13 14 15 16 17 18 19 20 21 22 23 24 25 26 27 28 29 30 31 32 33 34 35 36 37 38 39 40 41 42 43 44 45 46 47 48 49 50

000
ASUS43 KMPX 250101
RWRMN
WEATHER ROUNDUP FOR MINNESOTA
NATIONAL WEATHER SERVICE TWIN CITIES/CHANHASSEN MN
700 PM CST SAT JAN 24 2015


NOTE: "FAIR" INDICATES FEW OR NO CLOUDS BELOW 12,000 FEET WITH NO
SIGNIFICANT WEATHER AND/OR OBSTRUCTIONS TO VISIBILITY. N/A MEANS
CURRENT SKY AND/OR WEATHER CONDITIONS ARE NOT AVAILABLE.

MNZ060>063-068>070-250200-
   Twin Cities Metro

CITY           SKY/WX    TMP DP  RH WIND       PRES   REMARKS
TWIN CITIES    CLOUDY    36  30  79 W3        29.60R
ST PAUL        CLOUDY    36  31  82 CALM      29.62R
CRYSTAL        CLOUDY    37  31  78 CALM      29.60R
LAKEVILLE      CLOUDY    32  30  93 CALM      29.60R
EDEN PRAIRIE   CLOUDY    35  31  85 CALM      29.59R
SOUTH ST PAUL  CLOUDY    36  32  86 CALM      29.60R
LAKE ELMO      FAIR      34  32  93 E3        29.62R
$$
MNZ001>005-007-008-013>017-022>024-027-028-250200-
   Northwest Minnesota

CITY           SKY/WX    TMP DP  RH WIND       PRES   REMARKS
BEMIDJI        CLOUDY    30  26  83 NE10      29.66R WCI  21
HALLOCK        CLOUDY    19  16  86 N13       29.79R WCI   7
ROSEAU         CLEAR     18  10  73 NE10      29.79R WCI   6
WARROAD        CLOUDY    16   9  73 NE13      29.80R WCI   2
THIEF RVR FALL CLOUDY    27  19  74 N13       29.73R WCI  16
CROOKSTON      CLOUDY    30  25  80 NE13      29.74R WCI  20
FOSSTON        CLOUDY    27  23  86 NE13      29.69R WCI  16
DETROIT LAKES  CLOUDY    32  32 100 N5        29.64R WCI  27
MOORHEAD       CLOUDY    34  34 100 N10       29.66R FOG     WCI  26
PARK RAPIDS    CLOUDY    34  29  82 NE7       29.62R WCI  28
MAHNOMEN       CLOUDY    32  30  90 N9        29.64R WCI  25
$$
MNZ006-009>011-018-025>026-250200-
   North Central Minnesota

CITY           SKY/WX    TMP DP  RH WIND       PRES   REMARKS
BAUDETTE       PTCLDY    15   6  67 NE8       29.77R WCI   4
FLAG ISLAND    CLOUDY    14   5  67 NE10      29.81R WCI   1
INTL FALLS     CLEAR     13   5  70 NE9       29.77R WCI   1
WASKISH        FAIR      19  10  68 CALM      29.75R
BIG FORK       PTCLDY    25  14  63 N5        29.70R WCI  19
LONGVILLE      CLOUDY    34  28  80 NE3       29.63R
GRAND RAPIDS   CLOUDY    28  21  74 NE8       29.65R WCI  20
CRANE LAKE     FAIR      12   7  79 NE6       29.78R WCI   3
ORR            CLEAR     18   7  62 CALM      29.70R
COOK           CLEAR     19  10  68 NE7       29.71R WCI  10
WALKER         CLOUDY    32  28  84 NE7       29.63R WCI  26
$$
MNZ012-019>021-037-250200-
   Northeast Minnesota

CITY           SKY/WX    TMP DP  RH WIND       PRES   REMARKS
DULUTH         FLURRIES  25  21  85 E20G29    29.68R WCI  11
ELY            CLEAR     16   9  73 NE7       29.73R WCI   6
HIBBING        PTCLDY    28  19  69 NE5       29.66R WCI  23
EVELETH        MOCLDY    28  21  74 NE7       29.68R WCI  21
DULUTH HARBOR  CLOUDY    28  27  93 NE22      29.73R WCI  15
TWO HARBORS    CLOUDY    27  21  80 E16G23    29.70R WCI  14
SILVER BAY     CLOUDY    25  19  80 E13       29.72R WCI  13
GRAND MARAIS     N/A     17   5  59 NE8       29.81R WCI   7
G MARAIS ARPRT CLEAR      7   0  72 N5        29.73R WCI  -2
$$
MNZ029>031-032-039>041-046>048-054>057-064-250200-
   West Central Minnesota

CITY           SKY/WX    TMP DP  RH WIND       PRES   REMARKS
FERGUS FALLS   CLOUDY    34  30  86 E6        29.64R WCI  29
WHEATON        MOCLDY    30  28  93 NW5       29.64R WCI  25
MORRIS         CLOUDY    34  30  86 N5        29.59R WCI  30
ALEXANDRIA     CLOUDY    33  30  88 NE9       29.59R WCI  25
ELBOW LAKE     CLOUDY    32  31  96 N5        29.60R WCI  27
WADENA         CLOUDY    30  28  93 NE3       29.61R
GLENWOOD       CLOUDY    32  30  93 N6        29.59R WCI  26
APPLETON       CLOUDY    36  30  80 N3        29.60R
BENSON         CLOUDY    34  30  86 N3        29.59R
ORTONVILLE     LGT SNOW  34  30  86 N6        29.60R WCI  29
MADISON        LGT RAIN  37  36  93 N5        29.60R
WILLMAR        FAIR      34  30  86 CALM      29.60R
$$
MNZ033>034-036-042>043-049>051-058-059-250200-
   Central Minnesota

CITY           SKY/WX    TMP DP  RH WIND       PRES   REMARKS
ST CLOUD       CLOUDY    34  30  85 CALM      29.60R
SAUK CENTRE    CLOUDY    34  31  91 NE5       29.59R WCI  30
PAYNESVILLE    CLOUDY    31  30  96 CALM      29.59R
AITKIN         CLOUDY    37  28  70 NE5       29.62R
PINE RIVER     CLOUDY    34  28  80 NE5       29.66R WCI  30
BRAINERD       CLOUDY    35  30  82 NE7       29.62R WCI  29
STAPLES        CLOUDY    30  30 100 CALM      29.61R
LONG PRAIRIE   CLOUDY    32  30  93 N6        29.60R WCI  26
LITTLE FALLS   CLOUDY    34  30  86 CALM      29.61R
LITCHFIELD     CLOUDY    36  34  93 CALM      29.59R
BUFFALO        CLOUDY    33  31  91 CALM      29.61R
MAPLE LAKE     CLOUDY    34  32  94 CALM      29.60R
$$
MNZ037-044-045-052-053-250200-
   East Central Minnesota

CITY           SKY/WX    TMP DP  RH WIND       PRES   REMARKS
PRINCETON      CLOUDY    37  32  81 NE3       29.61R
MORA           CLOUDY    36  30  80 NE3       29.63R
CAMBRIDGE      CLOUDY    37  28  70 CALM      29.59S
RUSH CITY      CLOUDY    36  30  80 NE3       29.63R
MOOSE LAKE     CLOUDY    32  28  86 NE5       29.64R WCI  27
HINCKLEY       CLOUDY    36  32  87 CALM      29.63R
CLOQUET        LGT SNOW  28  25  86 E12G17    29.67R WCI  18
MCGREGOR       CLOUDY    34  30  86 NE5       29.64R WCI  30
$$
MNZ071>073-080-081-089-090-097-098-250200-
   Southwest Minnesota

CITY           SKY/WX    TMP DP  RH WIND       PRES   REMARKS
MONTEVIDEO     LGT RAIN  34  30  86 CALM      29.60S
GRANITE FALLS  LGT RAIN  34  32  93 CALM      29.60S
CANBY          DRIZZLE   35  33  94 NW3       29.60R
MARSHALL       CLOUDY    36  30  80 NW5       29.60R
REDWOOD FALLS  CLOUDY    37  32  82 CALM      29.58R
OLIVIA         CLOUDY    32  32 100 CALM      29.58R
PIPESTONE      CLOUDY    36  34  93 CALM      29.55S
WINDOM         RAIN      36  34  93 W8        29.57S
WORTHINGTON    CLOUDY    36  30  80 W5        29.57S
JACKSON        MIX PCPN  36  32  87 W6        29.58R
TRACY          LGT RAIN  36  34  93 W3        29.58R
SLAYTON        DRIZZLE   34  32  92 CALM      29.58R
$$
MNZ065>067-074>077-082>085-091>093-250200-
   South Central Minnesota

CITY           SKY/WX    TMP DP  RH WIND       PRES   REMARKS
MANKATO        CLOUDY    36  30  80 W3        29.59R
NEW ULM        CLOUDY    34  34 100 CALM      29.58S
ST JAMES       CLOUDY    36  34  93 CALM      29.58F
FAIRMONT       CLOUDY    36  30  80 NW3       29.57F
GLENCOE        CLOUDY    34  33  96 CALM      29.58S
FARIBAULT      CLOUDY    34  32  93 CALM      29.59S
OWATONNA       CLOUDY    36  34  93 CALM      29.59S
WASECA         CLOUDY    34  32  93 CALM      29.59F
ALBERT LEA     CLOUDY    36  36 100 CALM      29.58R
$$
MNZ078>079-086>088-094>096-250200-
   Southeast Minnesota

CITY           SKY/WX    TMP DP  RH WIND       PRES   REMARKS
ROCHESTER      CLOUDY    34  31  88 S5        29.59S WCI  30
RED WING       CLOUDY    34  30  86 CALM      29.61R
STANTON        CLOUDY    35  32  89 CALM      29.59R
DODGE CENTER   CLOUDY    34  34 100 S3        29.58S
WINONA         CLOUDY    34  32  93 CALM      29.63R
AUSTIN         MOCLDY    36  32  87 CALM      29.59S
PRESTON        CLOUDY    34  32  92 SE3       29.60S
$$
ABBREVIATIONS USED IN REMARKS
   TC - TEMPERATURES IN CELSIUS
  WCI - WIND CHILL INDEX
   HX - HEAT INDEX
  VSB - VISIBILITY
$$


USA.gov is the U.S. government's official web portal to all federal, state and local government web resources and services.